This is the latest recevied weather packets stored in our database for station/object IZ5MMH-1. If no packets are shown the sender has not sent any weather packets the latest 10 day(s).
| Time | Temp. | Humidity | Pressure | Rain* | Wind** | Luminosity | Snow |
|---|---|---|---|---|---|---|---|
| 1787862895 | 27.78° C | 71% | 1017.5 hPa | - | - | - | - |
| 1787862294 | 27.78° C | 70% | 1017.4 hPa | - | - | - | - |
| 1787861694 | 27.78° C | 70% | 1017.4 hPa | - | - | - | - |
| 1787861094 | 28.33° C | 70% | 1017.3 hPa | - | - | - | - |
| 1787860495 | 28.33° C | 69% | 1017.8 hPa | - | - | - | - |
| 1787859894 | 28.33° C | 68% | 1017.7 hPa | - | - | - | - |
| 1787859295 | 28.33° C | 72% | 1017.7 hPa | - | - | - | - |
| 1787858693 | 28.33° C | 68% | 1017.9 hPa | - | - | - | - |
| 1787858094 | 28.89° C | 66% | 1017.9 hPa | - | - | - | - |
| 1787857489 | 28.89° C | 68% | 1017.8 hPa | - | - | - | - |
| 1787856895 | 28.89° C | 66% | 1017.8 hPa | - | - | - | - |
| 1787856294 | 28.89° C | 69% | 1017.9 hPa | - | - | - | - |
| 1787855694 | 28.89° C | 67% | 1017.5 hPa | - | - | - | - |
| 1787855094 | 29.44° C | 66% | 1017.4 hPa | - | - | - | - |
| 1787854493 | 29.44° C | 66% | 1017.1 hPa | - | - | - | - |
| 1787853893 | 29.44° C | 65% | 1016.8 hPa | - | - | - | - |
| 1787853294 | 30° C | 65% | 1016.8 hPa | - | - | - | - |
| 1787852694 | 30° C | 67% | 1016.8 hPa | - | - | - | - |
| 1787852093 | 30.56° C | 64% | 1017 hPa | - | - | - | - |
| 1787851493 | 30.56° C | 65% | 1017.1 hPa | - | - | - | - |
| 1787850894 | 30.56° C | 63% | 1017.2 hPa | - | - | - | - |
| 1787850293 | 31.11° C | 63% | 1017.6 hPa | - | - | - | - |
| 1787849693 | 31.11° C | 62% | 1017.6 hPa | - | - | - | - |
| 1787849093 | 31.11° C | 63% | 1017.5 hPa | - | - | - | - |
| 1787848493 | 31.67° C | 62% | 1017.6 hPa | - | - | - | - |
* Rain since midnight (hover to see other rain measurements)
** Current wind speed in m/s (hover to see current wind gust speed)